Home   Weather   Township of Washington   Past weeks
Flag for USA

Past Weather in Township of Washington, Arkansas, USA — Yesterday and Last 2 Weeks

Now
45 °F

Passing clouds.


Feels Like: 44 °F
Forecast: 63 / 45 °F
Wind: 3 mph from North

Location: Adams Field

Current Time: Mar 26, 2019 at 7:36:23 am

Latest Report: Mar 26, 2019 at 6:53 am


Visibility: 10 mi

Pressure: 30.33 "Hg

Humidity: 82%

Dew Point: 40 °F

Location of Township of WashingtonLocation

Past Weather in Township of Washington — Graph

°F

Township of Washington Temperature Yesterday

Maximum temperature yesterday: 64 °F (at 12:53 pm)
Minimum temperature yesterday: 52 °F (at 11:53 pm)
Average temperature yesterday: 58 °F

High & Low Weather Summary for the Past Weeks

 TemperatureHumidityPressure
High71 °F (Mar 22, 4:53 pm)100% (Mar 25, 2:53 am)30.50 "Hg (Mar 25, 2:53 am)
Low35 °F (Mar 17, 6:53 am)17% (Mar 22, 3:53 pm)29.62 "Hg (Mar 14, 3:22 am)
Average54 °F65%30.16 "Hg
* Reported Mar 11 6:53 am — Mar 26 6:12 am, Township of Washington. Weather by CustomWeather, © 2019

Note: Actual official high and low records may vary slightly from our data, if they occured in-between our weather recording intervals... More about our weather records

Advertising

Township of Washington Weather History for the Previous 24 Hours

Scroll right to see more
 ConditionsComfort  
Time TempWeatherWind HumidityBarometerVisibility
6:12 am
Tue, Mar 26
44 °FPassing clouds.6 mph85%30.33 "Hg10 mi
5:53 am45 °FClear.6 mph82%30.33 "Hg10 mi
4:53 am46 °FClear.6 mph79%30.30 "Hg10 mi
3:53 am48 °FPassing clouds.3 mph77%30.29 "Hg10 mi
2:53 am48 °FPassing clouds.5 mph74%30.28 "Hg10 mi
1:53 am49 °FPassing clouds.9 mph74%30.29 "Hg10 mi
12:53 am50 °FPassing clouds.9 mph74%30.29 "Hg10 mi
11:53 pm
Mon, Mar 25
52 °FPassing clouds.9 mph75%30.27 "Hg10 mi
10:53 pm54 °FPassing clouds.13 mph69%30.25 "Hg10 mi
9:53 pm53 °FPassing clouds.8 mph74%30.24 "Hg10 mi
8:53 pm57 °FPassing clouds.8 mph67%30.21 "Hg10 mi
7:53 pm58 °FOvercast.9 mph65%30.20 "Hg10 mi
6:53 pm60 °FMore clouds than sun.12 mph60%30.19 "Hg10 mi
5:53 pm61 °FOvercast.10 mph58%30.17 "Hg10 mi
4:53 pm62 °FOvercast.15 mph54%30.16 "Hg10 mi
3:53 pm62 °FMore clouds than sun.15 mph54%30.14 "Hg10 mi
2:53 pm64 °FOvercast.16 mph50%30.13 "Hg10 mi
1:53 pm64 °FOvercast.16 mph50%30.12 "Hg10 mi
12:53 pm64 °FPartly sunny.14 mph54%30.12 "Hg10 mi
11:53 am61 °FPartly sunny.13 mph60%30.12 "Hg10 mi
10:53 am62 °FScattered clouds.13 mph60%30.11 "Hg10 mi
9:53 am59 °FPassing clouds.15 mph64%30.10 "Hg10 mi
8:53 am56 °FSunny.12 mph72%30.08 "Hg10 mi
7:53 am54 °FPassing clouds.8 mph77%30.06 "Hg10 mi
Weather by CustomWeather, © 2019

See weather overview